Change the Weather History Date:

Sunday, March 31, 2013

  Actual Average (KMML) Record (KMML)
Temperature  
Mean Temperature 30 °F -  
Max Temperature 36 °F 49 °F 83 °F (1968)
Min Temperature 23 °F 27 °F -2 °F (1969)
Degree Days  
Heating Degree Days 35    
Growing Degree Days 0 (Base 50)    
Moisture  
Dew Point 25 °F    
Average Humidity 80    
Maximum Humidity 96    
Minimum Humidity 65    
Precipitation  
Precipitation 0.00 in - - ()
Sea Level Pressure  
Sea Level Pressure 30.02 in    
Wind  
Wind Speed 13 mph (NW)    
Max Wind Speed 25 mph    
Max Gust Speed 31 mph    
Visibility 10 miles    
Events Snow    
Averages and records for this station are not official NWS values.
T = Trace of Precipitation, MM = Missing Value Source: NWS Daily Summary

Daily Weather History Graph

Daily Weather History Graph

Search for Another Location

Airport or City:

Trip Planner

Search our weather history database for the weather conditions in past years. The results will help you decide how hot, cold, wet, or windy it might be!

Date:

Astronomy

Mar. 31, 2013 Rise Set
Actual Time 7:07 AM CDT 7:51 PM CDT
Civil Twilight 6:37 AM CDT 8:21 PM CDT
Nautical Twilight 6:02 AM CDT 8:56 PM CDT
Astronomical Twilight 5:26 AM CDT 9:33 PM CDT
Moon 12:08 AM CDT (3/31) 9:45 AM CDT (3/31)
Length of Visible Light 13h 43m
Length of Day
12h 44m
Waning Gibbous, 77% of the Moon is Illuminated
Mar 31
Waning Gibbous
Apr 2
Last Quarter
Apr 10
New
Apr 18
First Quarter
Apr 25
Full

Hourly Weather History & Observations

Time (CDT) Temp. Windchill Dew Point Humidity Pressure Visibility Wind Dir Wind Speed Gust Speed Precip Events Conditions
12:17 AM 33.8 °F 26.4 °F 32.9 °F 96% 29.95 in 7.0 mi WNW 9.2 mph - N/A   Mostly Cloudy
12:37 AM 33.3 °F - 32.4 °F 96% 29.95 in 5.0 mi Calm Calm - N/A   Mostly Cloudy
12:56 AM 33.6 °F 26.2 °F 32.5 °F 96% 29.94 in 7.0 mi West 9.2 mph - N/A   Overcast
1:17 AM 34.7 °F 26.4 °F 32.2 °F 91% 29.94 in 7.0 mi West 11.5 mph - N/A   Overcast
1:36 AM 34.9 °F 27.7 °F 32.0 °F 89% 29.93 in 7.0 mi West 9.2 mph - N/A   Overcast
1:56 AM 35.6 °F 27.5 °F 32.0 °F 87% 29.94 in 10.0 mi West 11.5 mph - N/A   Overcast
2:17 AM 35.8 °F 28.3 °F 32.4 °F 87% 29.93 in 10.0 mi West 10.4 mph - N/A   Mostly Cloudy
2:37 AM 36.1 °F 28.2 °F 32.5 °F 87% 29.92 in 10.0 mi West 11.5 mph - N/A   Scattered Clouds
2:56 AM 36.0 °F 27.1 °F 32.7 °F 88% 29.92 in 10.0 mi West 13.8 mph - N/A   Clear
3:16 AM 36.3 °F 28.0 °F 32.5 °F 86% 29.91 in 10.0 mi West 12.7 mph - N/A   Clear
3:37 AM 35.6 °F 27.1 °F 32.4 °F 88% 29.91 in 10.0 mi West 12.7 mph - N/A   Clear
3:56 AM 35.8 °F 26.5 °F 32.2 °F 87% 29.90 in 10.0 mi WNW 15.0 mph - N/A   Clear
4:16 AM 35.6 °F 27.1 °F 32.0 °F 87% 29.89 in 10.0 mi WNW 12.7 mph - N/A   Clear
4:37 AM 35.1 °F 27.4 °F 31.6 °F 87% 29.89 in 10.0 mi WNW 10.4 mph - N/A   Clear
4:56 AM 35.2 °F 27.1 °F 31.3 °F 85% 29.90 in 10.0 mi WNW 11.5 mph - N/A   Clear
5:16 AM 34.9 °F 24.2 °F 30.4 °F 84% 29.90 in 10.0 mi WNW 18.4 mph - N/A   Clear
5:37 AM 34.7 °F 24.0 °F 28.4 °F 78% 29.90 in 10.0 mi WNW 18.4 mph 29.9 mph N/A   Clear
5:56 AM 34.0 °F 24.2 °F 29.1 °F 82% 29.90 in 10.0 mi WNW 15.0 mph 21.9 mph N/A   Clear
6:16 AM 33.8 °F 23.5 °F 28.9 °F 82% 29.90 in 10.0 mi WNW 16.1 mph - N/A   Clear
6:36 AM 33.6 °F 22.6 °F 28.8 °F 82% 29.91 in 10.0 mi WNW 18.4 mph 21.9 mph N/A   Scattered Clouds
6:56 AM 33.1 °F 23.0 °F 28.6 °F 84% 29.91 in 10.0 mi NW 15.0 mph 23.0 mph N/A   Mostly Cloudy
7:16 AM 32.9 °F 22.4 °F 28.9 °F 85% 29.91 in 10.0 mi WNW 16.1 mph 23.0 mph N/A   Overcast
7:36 AM 32.9 °F 22.4 °F 29.1 °F 86% 29.92 in 10.0 mi NW 16.1 mph 23.0 mph N/A   Overcast
7:56 AM 32.9 °F 22.8 °F 29.3 °F 87% 29.94 in 10.0 mi NW 15.0 mph 20.7 mph N/A   Overcast
8:17 AM 32.5 °F 21.9 °F 29.3 °F 88% 29.95 in 10.0 mi NW 16.1 mph 21.9 mph N/A   Overcast
8:36 AM 32.5 °F 22.7 °F 29.3 °F 88% 29.95 in 10.0 mi NW 13.8 mph 20.7 mph N/A   Overcast
8:56 AM 32.5 °F 21.5 °F 29.3 °F 88% 29.95 in 7.0 mi NNW 17.3 mph 24.2 mph N/A   Overcast
9:17 AM 32.5 °F 21.2 °F 29.3 °F 88% 29.97 in 7.0 mi NW 18.4 mph 24.2 mph N/A   Overcast
9:36 AM 32.0 °F 18.6 °F 28.4 °F 87% 29.98 in 10.0 mi NNW 25.3 mph 31.1 mph N/A   Overcast
9:56 AM 31.1 °F 21.4 °F 27.0 °F 85% 29.99 in 10.0 mi NNW 12.7 mph 27.6 mph N/A   Overcast
10:15 AM 30.7 °F 18.1 °F 25.5 °F 81% 30.00 in 10.0 mi NNW 20.7 mph 28.8 mph N/A   Overcast
10:36 AM 30.9 °F 18.1 °F 24.6 °F 77% 30.01 in 10.0 mi NNW 21.9 mph 28.8 mph N/A   Mostly Cloudy
10:57 AM 31.8 °F 20.6 °F 24.6 °F 75% 30.00 in 10.0 mi NNW 17.3 mph 29.9 mph N/A   Scattered Clouds
11:16 AM 32.0 °F 21.6 °F 25.5 °F 77% 30.01 in 10.0 mi NNW 15.0 mph 27.6 mph N/A   Mostly Cloudy
11:37 AM 32.0 °F 21.2 °F 26.4 °F 80% 30.01 in 10.0 mi NW 16.1 mph 20.7 mph N/A   Overcast
11:56 AM 31.5 °F 19.8 °F 25.5 °F 79% 30.02 in 10.0 mi NNW 18.4 mph 27.6 mph N/A   Overcast
12:16 PM 32.0 °F 20.1 °F 25.5 °F 77% 30.02 in 10.0 mi NNW 19.6 mph 24.2 mph N/A   Overcast
12:37 PM 32.2 °F 20.0 °F 26.4 °F 79% 30.02 in 10.0 mi NW 20.7 mph 25.3 mph N/A   Mostly Cloudy
12:56 PM 32.0 °F 20.1 °F 25.0 °F 75% 30.03 in 10.0 mi NNW 19.6 mph 27.6 mph N/A   Mostly Cloudy
1:16 PM 32.0 °F 20.1 °F 23.5 °F 71% 30.03 in 10.0 mi NNW 19.6 mph 27.6 mph N/A   Scattered Clouds
1:36 PM 32.0 °F 21.2 °F 22.6 °F 68% 30.04 in 10.0 mi NNW 16.1 mph 26.5 mph N/A   Scattered Clouds
1:56 PM 32.0 °F 20.5 °F 22.6 °F 68% 30.04 in 10.0 mi NNW 18.4 mph 26.5 mph N/A   Scattered Clouds
2:16 PM 32.0 °F 20.1 °F 22.5 °F 68% 30.04 in 10.0 mi NNW 19.6 mph 25.3 mph N/A   Scattered Clouds
2:36 PM 32.0 °F 20.5 °F 22.3 °F 67% 30.05 in 10.0 mi NNW 18.4 mph 26.5 mph N/A   Scattered Clouds
2:57 PM 32.0 °F 20.8 °F 22.1 °F 67% 30.05 in 10.0 mi NW 17.3 mph 25.3 mph N/A   Scattered Clouds
3:16 PM 32.0 °F 20.5 °F 22.6 °F 68% 30.05 in 10.0 mi NW 18.4 mph 26.5 mph N/A   Mostly Cloudy
3:36 PM 30.7 °F 20.0 °F 20.1 °F 65% 30.05 in 10.0 mi NNW 15.0 mph 23.0 mph N/A   Mostly Cloudy
3:56 PM 30.2 °F 18.5 °F 20.7 °F 68% 30.06 in 10.0 mi NNW 17.3 mph 25.3 mph N/A   Overcast
4:16 PM 30.2 °F 18.1 °F 21.6 °F 70% 30.06 in 10.0 mi NNW 18.4 mph 25.3 mph N/A   Overcast
4:37 PM 29.5 °F 17.6 °F 21.0 °F 71% 30.07 in 10.0 mi NNW 17.3 mph 21.9 mph N/A   Mostly Cloudy
4:56 PM 30.2 °F 18.1 °F 21.2 °F 69% 30.07 in 10.0 mi NNW 18.4 mph 21.9 mph N/A   Mostly Cloudy
5:16 PM 29.5 °F 17.6 °F 20.3 °F 69% 30.08 in 10.0 mi NNW 17.3 mph 23.0 mph N/A   Scattered Clouds
5:37 PM 29.7 °F 18.6 °F 20.8 °F 70% 30.09 in 10.0 mi NNW 15.0 mph 24.2 mph N/A   Scattered Clouds
5:56 PM 28.2 °F 15.9 °F 19.8 °F 71% 30.10 in 10.0 mi NNW 17.3 mph 23.0 mph N/A   Scattered Clouds
6:16 PM 28.6 °F 16.8 °F 20.3 °F 71% 30.10 in 10.0 mi NNW 16.1 mph 20.7 mph N/A   Scattered Clouds
6:36 PM 27.7 °F 16.1 °F 20.1 °F 73% 30.10 in 10.0 mi NNW 15.0 mph 23.0 mph N/A   Clear
7:16 PM 27.3 °F 15.2 °F 18.5 °F 69% 30.12 in 10.0 mi NNW 16.1 mph 21.9 mph N/A   Scattered Clouds
7:37 PM 27.3 °F 16.1 °F 19.0 °F 71% 30.13 in 10.0 mi NNW 13.8 mph - N/A   Mostly Cloudy
7:56 PM 26.6 °F 14.7 °F 18.3 °F 71% 30.14 in 10.0 mi NNW 15.0 mph 21.9 mph N/A   Mostly Cloudy
8:16 PM 26.4 °F 16.0 °F 18.7 °F 73% 30.14 in 10.0 mi NNW 11.5 mph 17.3 mph N/A   Mostly Cloudy
8:37 PM 25.9 °F 14.8 °F 19.9 °F 78% 30.15 in 10.0 mi North 12.7 mph 17.3 mph N/A   Mostly Cloudy
8:56 PM 25.3 °F 13.6 °F 19.9 °F 80% 30.16 in 10.0 mi NNW 13.8 mph 18.4 mph N/A   Mostly Cloudy
9:17 PM 24.8 °F 14.6 °F 19.4 °F 80% 30.17 in 10.0 mi North 10.4 mph - N/A   Overcast
9:37 PM 24.4 °F 13.0 °F 19.4 °F 81% 30.18 in 10.0 mi NNW 12.7 mph - N/A   Scattered Clouds
9:56 PM 24.6 °F 12.2 °F 19.0 °F 79% 30.18 in 10.0 mi NNW 15.0 mph 18.4 mph N/A   Scattered Clouds
10:17 PM 24.8 °F 13.4 °F 19.4 °F 80% 30.19 in 10.0 mi NNW 12.7 mph 16.1 mph N/A   Mostly Cloudy
10:36 PM 24.8 °F 12.9 °F 19.4 °F 80% 30.19 in 10.0 mi NNW 13.8 mph 19.6 mph N/A   Overcast
10:56 PM 24.8 °F 13.4 °F 20.1 °F 82% 30.19 in 10.0 mi North 12.7 mph 16.1 mph N/A Snow Light Snow
11:16 PM 24.4 °F 13.0 °F 20.3 °F 84% 30.20 in 10.0 mi NNW 12.7 mph - N/A   Overcast
11:37 PM 23.9 °F 11.7 °F 18.7 °F 80% 30.20 in 10.0 mi NNW 13.8 mph 19.6 mph N/A   Mostly Cloudy